Temp
56 56 56 57 57 57 58 58 58 58 59 59 60 60 61 61 59 57 68 81 75 76 84 82 84 82 86 87 84 88 87 90 90 83 83 84 80 83 81 83 80 79 77 78 80 75 67 94 93 83 86 91 94 95
56 56 56 56 57 57 57 57 58 58 58 59 60 60 60 60 59 57 66 81 81 72 80 86 87 87 85 84 85 93 86 88 88 86 88 85 83 85 78 75 87 76 84 80 81 72 86 92 91 93 96 92 92 92
56 56 56 56 56 57 57 57 58 58 58 59 60 60 60 59 58 58 69 80 77 75 81 83 83 88 92 91 93 83 89 87 90 90 89 88 76 85 77 78 81 85 87 82 83 87 87 91 92 92 94 93 95 96
56 56 56 56 56 56 57 57 57 57 58 59 59 60 59 58 57 57 68 81 78 78 74 81 91 85 89 93 89 91 91 93 94 92 88 85 81 89 83 82 81 85 85 82 82 87 88 89 91 92 92 93 94 96
56 56 56 56 56 56 57 57 57 57 58 59 59 59 59 58 56 58 69 79 81 74 71 79 87 88 91 89 87 89 93 93 90 85 84 82 90 85 88 85 82 89 83 81 80 86 85 86 89 91 90 91 93 93
55 56 55 55 55 56 57 57 57 57 58 58 58 58 58 57 56 56 64 78 82 81 73 74 85 82 85 87 86 85 90 89 88 87 85 89 86 83 79 78 87 90 91 89 83 88 87 89 91 93 92 92 94 93
56 55 55 55 56 56 56 57 57 57 57 57 58 58 57 55 55 51 57 67 62 80 74 74 75 83 85 86 87 87 87 89 87 86 83 84 84 80 80 75 80 84 84 85 87 87 83 88 88 94 93 92 89 94
55 55 55 56 56 56 56 57 57 57 57 57 57 56 55 54 55 54 70 59 63 76 78 70 73 76 86 80 78 87 82 84 82 84 84 80 82 80 74 80 81 81 82 84 85 88 88 90 91 91 92 92 90 91
56 56 56 56 56 56 56 56 57 56 56 56 56 55 55 53 54 55 60 61 75 72 69 74 71 69 85 82 83 81 85 75 83 77 80 81 78 71 76 76 79 78 78 80 84 86 87 86 86 87 88 89 88 89
56 56 56 56 56 56 56 56 56 56 56 55 56 51 48 53 58 58 58 65 64 73 75 71 81 72 81 79 77 78 80 76 71 77 81 74 75 80 80 79 81 80 80 82 80 79 81 82 84 86 86 87 88 88
56 56 55 56 56 56 56 56 56 55 54 53 51 50 54 57 56 54 48 50 60 60 73 76 78 73 85 74 75 81 75 77 69 74 73 73 72 76 80 79 80 80 81 82 84 84 85 85 84 85 85 86 87 87
55 54 55 55 56 56 55 55 54 55 54 55 55 56 55 53 51 49 48 49 57 60 72 71 74 79 78 82 72 75 71 73 65 78 72 68 68 75 77 77 79 78 80 81 83 82 83 83 84 83 83 83 84 85
54 54 55 55 55 55 55 54 55 55 55 58 54 53 52 51 44 46 45 49 60 69 71 71 68 75 75 79 69 71 66 67 79 70 68 71 70 74 75 76 78 80 80 80 80 81 82 81 82 83 81 83 84 83
54 54 55 55 55 54 54 54 54 56 56 57 49 40 49 49 49 50 54 55 71 73 70 71 71 72 76 71 69 65 68 71 65 63 66 72 70 72 74 76 78 78 78 79 79 80 79 79 79 80 82 82 81 80
54 55 55 54 54 55 55 55 55 58 57 54 56 47 52 59 64 64 65 72 75 77 75 73 72 73 70 64 72 68 63 61 66 69 66 68 70 72 73 77 78 77 77 78 79 78 78 78 78 78 80 81 80 79
55 56 56 55 54 54 54 58 62 63 59 55 55 55 61 62 62 66 66 71 78 75 75 72 65 62 63 67 64 62 63 63 66 69 72 71 70 71 72 73 74 75 76 77 77 77 77 76 76 77 79 74 76 77
55 55 54 54 54 54 54 56 60 61 60 56 52 59 58 56 60 65 70 69 75 70 62 67 61 61 70 65 64 72 68 67 69 67 69 70 69 70 72 73 74 74 73 74 75 76 76 77 79 77 71 73 76 78
57 55 55 54 55 57 60 64 61 61 57 58 51 54 56 60 60 65 72 76 68 65 69 63 70 64 63 61 67 67 72 69 72 70 74 71 71 71 71 70 71 73 74 75 75 76 76 77 76 74 71 76 78 80
56 58 55 56 60 59 55 57 64 58 62 63 62 62 63 65 73 73 75 75 75 78 72 71 64 60 60 63 64 67 71 71 66 73 71 71 72 70 70 71 73 74 76 75 75 77 79 77 78 78 78 81 80 80
55 56 57 58 58 63 54 55 66 58 58 62 64 62 64 66 71 71 69 73 74 73 69 63 60 61 62 64 68 69 68 73 73 72 72 74 76 74 73 76 77 75 76 78 80 66 78 77 80 69 74 79 78 71
55 64 60 63 69 68 60 60 55 60 62 60 63 63 61 67 70 68 68 72 64 58 58 59 64 65 67 67 71 72 72 73 72 73 72 72 74 74 74 77 78 80 78 79 79 77 72 68 72 74 73 75 72 78
71 57 71 71 70 68 64 69 63 67 61 62 64 66 62 61 65 64 65 61 53 51 53 53 55 58 63 65 66 68 68 66 69 68 60 61 69 73 73 74 74 73 72 72 71 70 71 70 74 80 77 71 71 72
60 65 72 71 64 58 55 71 62 64 58 61 65 60 60 62 63 65 54 53 50 52 53 54 55 58 58 64 64 63 65 66 67 67 69 70 70 67 67 71 72 65 68 69 72 71 69 65 68 74 72 76 76 70
55 66 62 63 66 56 68 61 69 67 66 63 60 56 54 53 59 51 47 48 50 52 52 52 53 52 56 54 51 53 57 62 65 65 65 67 64 65 67 65 68 69 68 67 68 67 67 69 62 71 75 73 71 63
53 52 57 41 67 60 57 59 59 61 55 57 55 51 51 50 48 46 45 48 51 51 52 52 51 51 49 50 52 53 58 56 57 57 64 66 65 64 62 66 64 65 67 64 62 67 69 70 69 68 71 72 70 61
42 58 48 60 62 58 60 55 54 56 57 53 50 51 49 50 47 44 47 51 52 54 52 50 50 50 52 53 52 55 54 55 58 62 69 69 71 68 62 58 58 59 62 60 58 57 60 61 62 65 67 61 54 66
45 54 61 67 65 65 61 61 61 57 53 49 52 47 50 47 48 50 54 59 61 66 62 56 53 54 56 63 67 65 65 66 71 74 77 77 76 75 72 67 64 61 61 60 59 58 58 62 62 58 59 60 60 61
53 56 53 57 56 60 55 55 52 50 50 56 55 50 49 52 50 59 63 65 68 70 69 71 71 70 74 74 76 77 77 80 80 78 80 81 80 80 74 75 66 50 62 59 63 71 74 72 71 67 66 63 61 61
50 53 55 50 50 50 53 51 50 54 57 60 57 55 56 61 63 65 69 73 79 76 74 72 75 80 79 78 77 77 76 75 72 69 69 71 72 75 80 80 81 79 75 74 50 53 67 68 74 75 72 71 67 65
52 56 52 50 49 48 53 55 55 59 64 66 65 63 64 66 72 77 77 76 75 74 75 76 76 75 73 74 73 73 74 73 72 70 69 69 72 77 79 79 80 81 81 80 79 77 55 70 68 78 75 76 76 75
57 56 57 59 56 61 64 66 68 71 70 69 70 67 66 68 72 75 75 76 77 77 75 73 73 74 73 72 70 70 69 71 69 69 70 74 75 75 76 78 80 80 80 80 79 78 78 77 76 74 73 72 72 70
66 63 61 58 60 67 71 68 67 66 67 66 66 69 69 68 63 70 75 77 75 72 60 70 71 71 73 75 74 72 57 70 68 67 65 68 69 70 75 77 78 78 78 77 77 75 74 73 73 72 72 70 70 70
65 65 64 63 62 62 66 65 64 63 65 64 65 65 65 63 61 70 76 77 73 73 73 74 75 75 73 73 73 73 64 70 56 42 42 40 38 49 68 71 73 74 74 74 73 73 71 69 69 69 69 68 68 68
MSLP
1013.14 1012.90 1012.79 1012.90 1013.03 1013.08 1013.19 1013.31 1013.35 1013.34 1013.43 1013.51 1013.57 1013.68 1013.77 1013.89 1014.06 1014.31 1011.98 1010.36 1010.03 1007.24 1004.72 1004.73 1004.06 1003.20 1002.18 1001.23 999.71 999.92 1000.24 999.34 998.65 998.03 997.51 997.47 998.05 998.54 998.67 998.57 998.50 998.34 998.30 998.11 998.16 998.41 999.18 999.20 998.87 999.17 999.94 1000.27 1000.02 999.99
1012.04 1011.82 1011.72 1011.85 1012.15 1012.37 1012.57 1012.73 1012.82 1012.87 1012.99 1013.13 1013.22 1013.35 1013.44 1013.63 1013.80 1014.02 1012.09 1010.06 1010.12 1009.10 1006.01 1005.70 1005.11 1004.95 1004.60 1004.12 1002.70 1000.95 1000.38 999.56 999.80 998.99 998.80 998.90 999.38 999.57 999.87 999.23 999.59 999.94 999.49 999.04 999.52 1000.62 1000.77 1000.46 1000.19 1000.49 1000.42 1000.54 1000.97 1001.00
1010.93 1010.80 1010.72 1010.87 1011.28 1011.66 1011.97 1012.19 1012.35 1012.44 1012.62 1012.81 1012.93 1013.07 1013.23 1013.38 1013.56 1013.57 1011.89 1009.81 1009.74 1008.21 1005.80 1004.84 1004.07 1004.57 1004.62 1004.37 1004.13 1002.61 1002.01 1001.85 1001.10 1001.34 1000.00 1000.01 1000.32 1000.12 999.75 999.98 999.89 1000.45 1000.97 1000.39 1000.26 1000.04 1000.61 1000.76 1001.05 1001.43 1001.37 1001.31 1001.38 1001.49
1009.90 1009.79 1009.82 1010.02 1010.47 1010.97 1011.41 1011.69 1011.89 1012.07 1012.27 1012.52 1012.66 1012.82 1013.00 1013.15 1013.32 1013.26 1011.89 1009.73 1009.25 1007.50 1005.09 1003.66 1004.40 1004.54 1005.00 1004.49 1004.39 1003.82 1003.11 1002.91 1002.32 1001.98 1001.27 1000.90 1000.75 1001.00 1000.45 1000.84 1000.72 1001.07 1001.34 1000.96 1000.97 1000.88 1001.24 1001.42 1001.59 1001.79 1001.96 1002.05 1001.83 1001.84
1008.92 1008.79 1008.87 1009.25 1009.78 1010.34 1010.83 1011.24 1011.47 1011.70 1011.93 1012.19 1012.39 1012.63 1012.81 1012.99 1013.17 1013.03 1012.04 1009.97 1009.43 1008.58 1005.66 1003.54 1004.04 1004.42 1004.37 1004.54 1004.51 1004.26 1003.40 1002.97 1002.75 1002.46 1002.11 1001.58 1001.34 1002.07 1001.58 1001.74 1001.11 1001.12 1001.38 1001.36 1001.04 1001.79 1002.15 1002.07 1002.60 1002.73 1002.47 1002.26 1002.43 1002.37
1008.01 1007.99 1008.23 1008.70 1009.29 1009.87 1010.41 1010.80 1011.09 1011.35 1011.67 1012.01 1012.22 1012.48 1012.68 1012.90 1013.08 1013.04 1011.44 1009.46 1009.28 1008.98 1007.06 1003.97 1004.25 1004.48 1004.58 1004.61 1004.54 1004.54 1004.21 1004.11 1003.65 1003.02 1002.67 1002.49 1003.35 1003.67 1002.16 1001.53 1001.62 1001.47 1002.01 1002.67 1002.91 1003.26 1003.37 1003.38 1003.22 1002.95 1002.81 1002.57 1002.67 1002.63
1007.46 1007.68 1008.05 1008.56 1009.17 1009.71 1010.13 1010.44 1010.71 1011.14 1011.54 1011.88 1012.18 1012.44 1012.69 1012.92 1013.04 1012.99 1012.11 1011.11 1010.65 1009.25 1007.17 1004.45 1003.98 1004.69 1004.70 1004.57 1004.50 1004.53 1004.68 1004.34 1004.04 1003.64 1003.80 1003.48 1003.81 1004.79 1003.39 1002.73 1003.41 1003.68 1004.28 1004.51 1004.58 1004.36 1004.00 1003.60 1003.10 1002.89 1002.82 1003.22 1003.25 1003.13
1007.90 1008.00 1008.31 1008.74 1009.20 1009.59 1009.93 1010.24 1010.64 1011.11 1011.58 1011.94 1012.26 1012.54 1012.78 1013.01 1013.09 1012.64 1011.26 1011.55 1011.20 1008.88 1007.11 1004.61 1003.43 1004.35 1004.61 1004.00 1004.22 1004.61 1004.46 1004.61 1004.77 1003.91 1004.33 1004.15 1004.11 1004.60 1003.78 1003.72 1004.50 1004.88 1005.13 1004.85 1004.70 1004.58 1004.13 1003.88 1003.67 1003.52 1003.44 1003.31 1003.17 1002.86
1008.27 1008.42 1008.66 1008.94 1009.21 1009.53 1009.84 1010.31 1010.78 1011.25 1011.69 1012.09 1012.44 1012.76 1012.92 1013.04 1012.75 1012.06 1011.96 1011.70 1010.40 1009.38 1006.57 1004.59 1003.13 1003.08 1004.20 1003.63 1003.82 1004.74 1004.32 1004.19 1004.65 1004.33 1004.00 1004.47 1003.81 1004.01 1004.19 1004.94 1005.17 1005.67 1005.81 1005.57 1005.21 1004.80 1004.39 1004.08 1003.93 1003.82 1003.71 1003.44 1003.14 1002.76
1008.49 1008.65 1008.81 1009.07 1009.28 1009.55 1010.04 1010.55 1010.96 1011.43 1011.84 1012.24 1012.55 1012.56 1012.47 1012.46 1012.32 1012.04 1012.21 1010.83 1009.99 1007.98 1006.85 1004.78 1003.05 1003.07 1003.63 1003.42 1004.00 1004.20 1004.48 1003.81 1003.87 1003.96 1004.37 1004.61 1003.80 1003.97 1005.10 1005.65 1006.06 1006.36 1006.32 1006.04 1005.41 1004.95 1004.82 1004.52 1004.11 1003.98 1003.95 1003.90 1003.63 1003.31
1008.76 1008.84 1008.94 1009.16 1009.50 1009.92 1010.35 1010.80 1011.25 1011.76 1012.13 1012.12 1011.91 1012.18 1012.43 1012.33 1012.35 1012.16 1011.95 1010.95 1009.09 1007.53 1005.77 1004.32 1003.62 1003.45 1003.82 1003.41 1003.40 1003.81 1003.90 1003.78 1003.61 1003.56 1004.21 1003.43 1003.55 1004.26 1005.48 1006.14 1006.75 1006.80 1006.67 1006.31 1005.96 1005.70 1005.25 1004.82 1004.55 1004.33 1004.13 1003.94 1003.79 1003.69
1008.94 1009.09 1009.36 1009.61 1009.89 1010.28 1010.70 1011.08 1011.43 1011.66 1011.47 1011.28 1011.29 1011.85 1012.16 1011.90 1012.01 1011.94 1011.40 1010.53 1008.28 1005.72 1004.79 1004.49 1004.38 1003.71 1004.48 1004.39 1004.31 1004.92 1004.33 1004.55 1003.74 1004.30 1004.45 1003.66 1004.89 1005.61 1006.20 1006.55 1007.00 1007.11 1006.89 1006.60 1006.47 1006.31 1006.05 1005.74 1005.48 1005.37 1005.01 1004.68 1004.45 1004.26
1009.44 1009.62 1009.80 1010.06 1010.34 1010.66 1010.94 1011.27 1011.48 1011.39 1011.31 1011.26 1011.17 1011.39 1011.30 1011.83 1011.27 1010.44 1009.50 1008.37 1005.51 1004.53 1004.72 1004.70 1004.99 1004.66 1005.44 1004.75 1005.18 1005.07 1004.67 1004.35 1004.61 1004.36 1004.05 1004.23 1006.01 1006.54 1007.02 1007.21 1007.24 1007.19 1007.08 1006.99 1007.00 1006.92 1006.71 1006.42 1006.18 1005.71 1005.44 1005.26 1004.88 1004.70
1010.00 1010.15 1010.38 1010.57 1010.79 1011.08 1011.32 1011.58 1011.66 1011.46 1011.30 1010.44 1010.74 1010.86 1010.54 1010.07 1009.51 1008.55 1007.53 1006.16 1004.13 1004.00 1004.66 1004.87 1004.80 1004.70 1004.57 1005.07 1005.15 1004.82 1004.93 1005.03 1004.53 1004.05 1003.95 1004.79 1006.36 1007.19 1007.54 1007.66 1007.39 1007.18 1007.30 1007.18 1007.11 1007.00 1006.98 1006.90 1006.55 1006.16 1005.53 1005.29 1005.17 1004.88
1010.51 1010.69 1010.88 1011.13 1011.25 1011.43 1011.50 1011.53 1011.63 1011.39 1010.58 1009.96 1009.75 1009.34 1009.03 1008.31 1007.45 1006.89 1006.28 1004.65 1003.98 1003.89 1004.17 1004.47 1004.86 1005.08 1005.14 1005.55 1005.07 1005.08 1005.36 1004.77 1004.31 1004.05 1005.37 1006.61 1007.23 1007.77 1007.94 1007.73 1007.62 1007.66 1007.61 1007.63 1007.52 1007.37 1007.23 1007.01 1006.67 1006.13 1005.66 1005.40 1005.28 1004.98
1010.87 1010.83 1011.32 1011.63 1011.64 1011.78 1011.68 1011.39 1010.87 1010.40 1009.71 1009.70 1009.51 1008.79 1008.24 1007.47 1006.84 1005.95 1005.22 1004.19 1004.01 1004.02 1004.26 1004.85 1005.30 1005.49 1005.41 1005.15 1005.42 1005.24 1004.82 1004.49 1004.84 1005.66 1006.35 1007.38 1008.00 1008.35 1008.49 1008.38 1008.29 1008.29 1008.20 1007.96 1008.02 1007.72 1007.30 1006.93 1006.55 1006.05 1005.63 1005.70 1005.49 1005.07
1011.14 1011.20 1011.68 1011.89 1012.04 1012.01 1011.95 1011.67 1010.64 1009.44 1008.85 1008.82 1008.87 1008.65 1008.22 1007.85 1006.53 1005.44 1004.93 1005.01 1004.87 1004.86 1005.05 1005.07 1005.24 1005.59 1005.71 1005.32 1005.00 1004.90 1005.06 1006.01 1006.49 1007.00 1007.65 1008.12 1008.53 1008.59 1008.60 1008.47 1008.48 1008.49 1008.45 1008.35 1007.97 1007.59 1007.22 1006.83 1006.26 1005.95 1005.87 1005.64 1005.28 1004.76
1011.39 1011.90 1012.00 1012.13 1012.15 1011.78 1011.22 1010.68 1009.97 1009.12 1008.31 1008.55 1008.58 1008.30 1007.80 1007.47 1006.37 1005.66 1005.55 1005.46 1005.77 1005.64 1005.40 1005.80 1005.92 1006.02 1005.72 1005.60 1005.40 1005.90 1006.27 1007.12 1007.46 1007.84 1007.94 1008.65 1008.88 1008.93 1008.93 1008.82 1008.69 1008.43 1008.18 1007.96 1007.73 1007.32 1006.74 1006.14 1006.03 1005.77 1005.69 1005.00 1004.81 1004.00
1011.78 1011.96 1012.14 1012.11 1011.86 1011.49 1010.68 1010.57 1010.04 1008.97 1008.47 1008.08 1007.95 1007.89 1007.57 1007.08 1006.33 1006.23 1006.21 1006.20 1006.19 1006.00 1006.14 1006.21 1006.56 1006.85 1007.13 1007.40 1007.64 1007.77 1007.90 1008.00 1008.33 1008.42 1008.79 1008.85 1008.73 1008.82 1008.79 1008.60 1008.33 1007.97 1007.50 1007.46 1007.25 1006.72 1006.25 1006.01 1005.70 1005.61 1005.40 1004.54 1004.25 1004.14
1011.88 1011.81 1011.78 1011.76 1011.83 1010.53 1010.58 1010.42 1010.18 1009.32 1008.44 1008.31 1008.09 1007.92 1007.74 1007.56 1007.07 1006.89 1007.27 1007.34 1007.24 1006.94 1007.12 1007.70 1008.41 1008.98 1009.00 1009.17 1008.99 1008.68 1008.73 1008.41 1008.21 1007.85 1007.77 1008.05 1007.98 1008.10 1008.01 1007.65 1007.46 1007.45 1007.22 1006.53 1006.17 1006.05 1005.90 1005.58 1005.28 1005.88 1005.44 1004.85 1004.64 1004.46
1011.77 1010.96 1010.90 1010.93 1009.87 1009.42 1010.03 1010.07 1009.79 1009.19 1008.89 1008.73 1008.58 1008.41 1008.56 1008.04 1007.50 1007.61 1007.87 1008.32 1008.99 1009.94 1010.30 1010.77 1010.45 1010.24 1010.27 1010.28 1009.97 1009.63 1009.25 1008.95 1008.70 1008.40 1008.18 1008.00 1007.95 1008.30 1008.07 1007.63 1006.96 1006.56 1006.37 1005.91 1005.69 1005.58 1005.96 1006.26 1005.92 1005.18 1005.13 1004.87 1004.70 1004.11
1010.69 1010.96 1010.15 1009.72 1008.96 1009.15 1009.24 1009.50 1009.06 1008.75 1009.00 1008.85 1008.75 1008.84 1008.94 1008.64 1008.46 1009.10 1009.93 1010.52 1012.15 1013.27 1013.45 1013.25 1012.89 1012.33 1011.42 1010.77 1010.51 1010.34 1010.22 1010.14 1009.70 1009.46 1009.49 1009.44 1008.82 1008.09 1007.73 1007.78 1007.59 1007.31 1007.21 1006.94 1006.94 1006.89 1006.66 1006.50 1006.08 1005.18 1004.93 1005.21 1004.79 1004.99
1011.05 1010.86 1009.60 1009.14 1008.79 1008.97 1009.16 1008.81 1008.58 1008.60 1008.52 1008.78 1008.93 1009.28 1009.61 1009.76 1010.42 1010.79 1012.05 1013.43 1014.49 1014.98 1014.79 1014.31 1013.68 1012.95 1012.31 1011.58 1011.25 1011.03 1010.61 1010.13 1009.67 1009.45 1009.29 1009.12 1008.89 1009.04 1008.85 1008.42 1008.36 1008.51 1007.93 1007.53 1007.33 1007.20 1006.84 1006.42 1006.05 1005.70 1005.52 1005.32 1005.36 1005.92
1011.43 1010.35 1009.53 1008.72 1008.59 1008.47 1008.37 1008.55 1008.55 1008.44 1008.72 1009.07 1009.48 1010.39 1011.46 1012.09 1012.24 1012.94 1013.88 1014.86 1015.54 1015.46 1015.16 1014.67 1014.08 1013.44 1012.89 1012.57 1012.33 1011.98 1011.46 1010.75 1010.23 1010.09 1009.91 1009.32 1009.13 1009.20 1009.23 1009.24 1009.06 1008.88 1008.98 1008.70 1008.18 1007.82 1007.19 1007.10 1006.71 1006.22 1006.37 1006.47 1006.66 1007.19
1011.20 1010.79 1010.08 1009.70 1008.85 1008.61 1008.49 1008.56 1008.82 1009.05 1009.65 1010.26 1010.88 1012.03 1012.95 1013.23 1013.53 1014.33 1014.93 1015.50 1015.49 1015.33 1015.21 1014.90 1014.47 1014.09 1013.69 1013.20 1012.79 1012.41 1011.98 1011.44 1011.09 1010.79 1010.26 1009.80 1009.55 1009.55 1009.77 1009.77 1010.07 1010.12 1010.01 1009.61 1009.33 1008.60 1008.23 1008.03 1007.66 1007.49 1007.25 1007.17 1007.52 1007.92
1011.25 1010.48 1010.46 1009.33 1009.06 1008.89 1008.79 1008.98 1009.46 1009.83 1010.32 1011.30 1012.50 1013.45 1013.82 1013.95 1014.35 1014.89 1015.29 1015.30 1015.09 1015.07 1015.36 1015.14 1014.80 1014.21 1013.57 1013.13 1012.92 1012.53 1012.17 1011.83 1011.43 1010.41 1009.82 1009.56 1009.27 1009.29 1009.84 1010.05 1010.16 1010.32 1010.54 1010.51 1010.31 1009.97 1009.57 1009.50 1009.08 1008.49 1008.43 1008.52 1008.37 1007.96
1011.58 1010.65 1010.36 1010.32 1009.89 1009.61 1009.66 1010.03 1010.34 1010.69 1011.30 1012.12 1012.73 1013.56 1013.69 1013.69 1013.96 1014.73 1014.77 1014.68 1014.53 1014.13 1014.54 1014.61 1014.14 1013.77 1012.91 1012.15 1011.77 1011.64 1011.51 1011.32 1010.61 1009.97 1009.53 1009.40 1009.52 1009.60 1009.56 1009.68 1009.87 1010.56 1010.72 1010.64 1010.46 1010.18 1009.75 1009.24 1009.07 1009.09 1008.88 1008.68 1008.54 1008.34
1012.22 1011.57 1011.00 1011.01 1010.95 1010.77 1010.53 1011.00 1011.45 1011.88 1012.41 1012.59 1012.69 1012.88 1013.06 1012.92 1013.79 1013.94 1013.72 1013.82 1013.66 1013.35 1013.22 1013.01 1012.77 1012.49 1011.72 1011.61 1011.33 1010.93 1010.51 1010.14 1009.72 1009.76 1009.46 1009.10 1009.23 1009.39 1009.75 1009.58 1010.06 1010.26 1010.33 1010.39 1010.29 1009.37 1008.57 1008.39 1008.35 1008.58 1008.57 1008.73 1008.77 1008.57
1012.23 1012.04 1011.83 1011.79 1011.77 1011.84 1011.74 1012.04 1012.20 1012.44 1012.51 1012.13 1011.65 1012.19 1012.77 1012.97 1013.31 1013.14 1013.16 1012.61 1012.16 1012.01 1011.86 1011.78 1011.56 1011.26 1011.09 1011.19 1011.48 1011.60 1011.54 1011.18 1010.70 1010.33 1009.94 1009.59 1009.48 1009.44 1009.22 1008.92 1008.74 1008.89 1009.48 1009.71 1010.03 1009.92 1009.54 1009.06 1008.59 1008.34 1008.40 1008.37 1008.32 1008.09
1011.90 1011.79 1011.62 1011.64 1011.63 1011.70 1011.80 1012.07 1012.01 1012.01 1011.85 1011.53 1011.74 1012.32 1012.62 1012.79 1012.56 1012.37 1012.17 1012.02 1011.82 1011.81 1011.87 1011.82 1011.74 1011.71 1011.66 1011.46 1011.63 1012.14 1012.48 1012.67 1012.62 1012.23 1011.46 1010.91 1010.61 1010.28 1009.86 1009.45 1008.97 1008.65 1008.66 1008.60 1008.70 1008.78 1009.14 1008.73 1008.71 1008.11 1008.07 1007.83 1007.70 1007.84
1011.02 1011.26 1011.08 1011.01 1010.97 1010.85 1010.75 1010.92 1011.01 1011.06 1011.30 1011.49 1011.61 1011.72 1012.06 1012.42 1012.68 1012.77 1012.61 1012.33 1012.17 1012.08 1012.10 1012.24 1012.38 1012.43 1012.31 1012.46 1012.68 1012.68 1012.92 1013.58 1014.07 1013.95 1013.65 1012.63 1012.14 1011.63 1010.96 1010.36 1009.94 1009.49 1009.11 1008.86 1008.78 1008.95 1008.82 1008.51 1008.60 1008.72 1008.94 1008.95 1008.97 1008.86
1010.03 1010.38 1010.69 1010.65 1010.82 1010.81 1010.71 1010.80 1011.02 1011.22 1011.46 1011.58 1011.75 1011.95 1012.06 1012.04 1012.31 1012.74 1013.05 1012.58 1012.39 1012.63 1013.36 1012.86 1012.87 1013.13 1013.36 1013.14 1013.37 1013.81 1014.27 1014.42 1014.77 1014.96 1014.99 1014.45 1013.99 1013.35 1012.28 1011.49 1010.92 1010.45 1010.12 1009.72 1009.64 1009.99 1009.90 1009.66 1009.62 1009.82 1009.48 1009.83 1009.83 1009.74
1010.13 1010.44 1010.69 1010.80 1010.77 1010.94 1011.12 1011.04 1011.23 1011.38 1011.58 1011.66 1011.75 1012.00 1012.11 1012.07 1012.21 1012.67 1013.24 1013.31 1013.40 1013.44 1013.36 1013.34 1013.38 1013.59 1013.90 1013.86 1013.89 1013.74 1013.83 1014.63 1015.32 1015.48 1015.63 1015.62 1015.32 1014.75 1013.77 1013.26 1012.53 1011.72 1011.22 1010.96 1010.90 1010.91 1011.08 1011.06 1010.82 1010.89 1010.83 1010.89 1010.85 1010.82
Wind_Speed
20 19 19 18 17 16 15 13 12 12 11 11 10 10 10 8 4 5 7 7 8 9 4 3 5 7 5 6 5 11 7 8 10 9 7 3 4 4 8 8 3 7 9 11 12 10 6 11 4 8 7 4 6 2
20 19 18 19 17 16 14 13 11 12 11 10 10 8 8 6 2 10 8 5 6 7 9 8 8 5 6 8 10 2 6 2 8 5 0 4 2 2 6 9 10 9 10 10 7 5 2 5 4 7 7 2 1 1
19 18 17 18 17 16 13 13 12 11 11 10 10 9 7 6 4 12 7 2 6 8 10 10 10 7 6 6 7 6 3 4 3 6 6 1 3 5 4 9 4 5 4 7 10 6 5 6 2 1 1 4 2 5
18 17 16 17 18 16 14 13 11 10 11 10 10 9 6 6 5 10 9 4 6 6 7 12 5 6 2 2 4 6 3 1 3 3 3 5 5 3 4 7 6 7 4 4 6 7 2 3 1 3 0 3 4 2
16 15 16 16 17 16 14 13 11 12 12 10 10 8 6 5 5 5 9 7 6 8 6 4 8 4 6 5 4 4 3 1 2 4 5 6 2 2 4 4 5 5 6 7 6 10 7 7 4 3 5 4 5 7
14 12 11 14 15 14 13 12 11 13 11 10 10 8 6 6 4 2 5 8 7 5 7 4 8 4 4 5 7 4 2 2 4 3 4 3 5 5 6 4 7 3 10 13 8 10 7 8 8 8 8 4 6 6
4 8 12 14 13 12 12 10 11 12 11 10 8 6 6 4 2 2 3 7 13 4 5 4 7 5 7 8 5 5 5 1 4 3 3 5 4 4 7 8 10 8 6 7 9 10 11 12 10 11 7 8 9 11
5 8 10 11 11 12 10 11 12 12 10 9 7 7 6 6 1 5 1 8 8 7 4 5 6 8 9 6 5 3 5 4 4 3 1 6 6 4 5 5 4 5 6 7 6 10 12 11 10 11 14 14 17 17
5 7 9 10 9 8 12 12 11 10 10 10 11 14 3 2 3 1 8 8 6 6 5 5 7 7 8 7 6 5 4 5 4 5 4 2 6 5 2 5 1 4 4 7 9 8 10 10 11 11 11 10 13 12
6 7 9 8 8 13 13 12 12 11 11 16 5 2 2 2 5 1 2 4 4 4 4 7 3 7 9 6 6 6 4 5 5 7 5 5 9 11 8 3 2 2 4 7 9 8 7 10 10 10 11 11 11 11
5 7 8 9 12 12 13 12 12 12 13 3 3 2 2 6 2 2 2 1 3 4 6 5 4 7 2 8 6 2 3 5 5 6 5 5 6 10 9 5 3 2 4 6 8 9 13 13 11 11 11 12 12 11
8 10 10 11 11 12 12 12 14 4 2 1 4 3 2 1 3 2 3 3 7 6 8 8 7 2 5 4 4 4 3 2 3 4 4 5 9 10 7 4 0 3 4 6 7 8 9 11 10 11 12 12 12 13
10 10 11 11 11 11 10 13 9 5 3 3 2 2 1 3 4 5 6 5 6 7 7 7 7 4 3 5 5 4 5 4 2 4 5 5 9 6 5 5 3 2 2 4 6 8 10 11 12 12 11 12 12 12
11 11 11 10 11 12 8 8 5 4 3 1 3 2 3 6 5 4 4 8 7 7 11 10 7 6 4 5 2 5 2 3 4 5 6 9 10 7 5 4 3 1 3 5 6 7 9 11 11 13 12 10 12 12
11 11 11 9 10 9 5 3 3 3 4 2 2 3 5 4 4 4 7 4 7 9 12 10 5 4 6 3 4 1 4 5 6 1 11 8 9 4 1 2 2 2 4 6 9 11 11 12 12 13 12 11 13 10
9 7 5 11 9 4 2 6 4 3 1 3 2 3 2 2 5 6 6 8 8 6 6 4 2 3 4 2 5 6 5 5 5 7 7 7 4 2 1 5 3 4 5 7 9 11 12 12 12 13 12 7 11 12
7 3 8 8 6 3 1 3 3 3 2 3 1 1 2 5 3 5 7 6 3 3 1 2 6 5 1 5 5 3 1 9 5 5 5 6 3 3 4 4 3 5 5 6 9 10 12 13 11 12 10 10 10 12
4 5 8 7 5 6 4 4 2 4 3 3 1 2 4 3 4 6 7 5 2 2 2 4 2 6 3 4 1 4 5 7 7 7 5 5 5 4 5 5 5 4 6 7 10 12 13 11 11 5 9 10 8 12
5 5 6 5 5 4 3 3 3 2 2 2 4 4 4 4 5 7 7 4 4 2 2 2 2 2 3 6 5 4 3 3 1 1 3 5 5 4 5 6 6 8 9 9 13 9 11 9 10 6 12 9 7 9
5 6 7 8 6 2 2 1 2 3 2 3 3 6 6 4 3 6 6 3 0 2 1 3 5 8 6 4 2 2 2 3 5 5 4 4 5 8 8 6 7 10 11 12 12 4 10 7 4 3 8 8 9 8
7 4 5 8 7 2 2 2 1 2 3 3 3 5 4 3 6 6 4 6 5 5 5 5 6 6 6 5 6 8 7 6 7 7 8 8 8 9 9 10 10 8 10 9 9 5 6 5 8 5 4 5 4 7
4 4 5 3 2 3 3 3 2 3 2 3 3 4 3 4 6 8 5 7 4 4 5 6 7 8 9 8 7 6 7 9 9 7 5 5 8 7 7 8 8 7 7 7 7 8 8 5 7 9 6 5 7 8
7 5 3 1 1 3 2 2 1 1 3 3 4 2 4 4 6 5 5 4 3 4 7 7 10 9 7 8 8 8 9 9 6 5 3 5 5 5 5 4 5 6 7 6 7 7 6 8 5 6 6 9 10 8
5 5 5 3 1 1 4 2 1 2 4 3 4 4 4 5 5 4 4 3 3 4 5 10 8 7 6 9 6 6 7 4 4 4 6 6 5 4 4 2 4 7 8 8 8 7 6 7 9 2 10 10 10 7
4 4 1 4 1 2 3 5 3 4 5 4 4 5 4 4 3 4 3 3 3 4 7 7 7 5 4 4 4 5 7 4 4 4 7 7 7 6 5 6 5 6 8 7 9 9 10 12 9 9 11 10 9 3
2 2 1 2 2 1 3 4 3 4 5 5 4 3 2 2 3 3 1 2 2 3 6 7 6 6 5 3 3 4 4 3 3 2 5 2 5 6 5 4 4 4 5 5 4 5 7 8 8 11 9 10 9 11
1 1 2 2 1 2 4 4 5 4 5 3 3 2 1 3 3 3 3 3 2 3 4 5 5 4 5 3 3 1 4 3 5 6 6 7 8 7 6 5 4 0 1 2 3 5 7 7 4 3 5 6 7 8
2 4 3 4 4 4 3 4 4 4 3 2 4 2 2 4 3 3 2 2 4 4 5 4 6 6 4 6 8 8 6 4 2 4 3 6 7 8 6 4 1 2 2 3 4 8 8 7 4 3 5 5 3 3
1 2 3 5 4 3 4 3 2 3 2 3 3 4 4 4 4 4 2 3 0 4 4 3 4 3 4 6 8 8 9 10 10 10 9 7 7 7 8 7 4 5 7 4 5 6 8 9 8 8 7 4 2 5
1 1 2 2 2 2 1 4 4 4 5 3 7 10 9 7 5 5 3 3 4 5 5 6 6 6 7 7 7 10 10 11 11 11 11 10 10 9 8 8 8 6 5 4 3 6 7 3 1 5 8 9 8 9
3 4 10 11 11 9 8 10 9 10 10 10 9 9 9 8 7 5 4 5 5 5 6 7 7 8 7 8 8 8 8 9 12 14 13 10 10 10 10 9 8 8 8 8 7 8 9 6 6 7 9 10 10 10
10 13 12 15 12 9 8 9 9 9 8 7 8 7 7 5 5 3 3 3 4 6 3 5 6 7 7 5 6 7 5 8 9 10 14 11 11 12 11 11 9 8 9 8 8 9 10 10 9 10 10 10 10 11
9 9 9 8 7 7 6 5 5 5 5 5 4 3 2 0 3 4 3 3 4 3 3 5 5 5 5 5 6 4 3 9 10 8 7 7 9 12 10 9 10 9 9 9 9 9 10 11 10 10 9 10 10 10
Wind_Direction
279 274 257 246 249 249 247 248 255 248 238 239 240 245 241 231 219 197 276 225 256 279 297 319 327 328 290 277 311 116 205 230 199 245 246 144 300 157 237 282 343 254 209 237 253 265 264 349 181 241 54 44 334 282
274 271 261 237 236 240 242 239 246 241 226 233 233 235 226 219 273 199 263 175 222 260 334 323 293 311 303 345 328 19 10 8 20 258 241 30 168 220 268 242 179 254 301 308 341 67 121 343 34 25 355 43 298 134
271 269 259 228 223 230 230 225 234 235 215 225 223 222 224 217 259 206 271 230 221 258 252 228 208 160 234 258 295 299 87 349 61 357 351 39 341 328 226 235 246 192 322 274 283 289 30 340 71 352 27 320 209 203
270 262 248 223 214 221 220 219 228 235 211 215 215 215 216 209 261 214 245 254 268 298 276 143 134 170 299 193 280 326 346 178 3 292 244 261 247 147 273 58 289 41 170 228 265 247 213 143 39 43 236 260 242 206
270 262 235 216 206 212 208 214 224 225 200 204 207 203 205 197 278 233 261 271 261 300 327 119 126 172 182 151 200 222 293 323 248 201 229 240 318 323 269 320 252 186 227 236 46 38 357 85 60 336 300 267 272 281
268 247 212 199 194 195 200 208 223 204 186 193 194 193 191 173 208 198 229 197 233 236 277 203 84 136 114 156 167 178 246 70 265 271 266 14 37 289 274 232 214 26 32 18 353 353 334 314 306 293 297 299 307 290
268 194 171 174 177 180 195 208 194 176 170 177 174 179 165 161 175 214 334 351 327 265 251 218 151 146 158 156 156 161 195 187 278 204 246 255 169 229 271 266 55 29 5 333 311 303 293 290 288 296 213 273 289 271
95 131 151 155 165 180 190 188 168 162 167 159 155 146 128 129 340 293 80 237 288 254 262 271 98 151 190 174 150 160 164 189 174 267 107 236 159 230 255 80 78 44 329 287 335 318 309 308 293 291 295 293 280 276
139 144 153 166 166 170 171 157 150 145 146 136 128 128 123 201 197 220 326 278 258 300 285 238 164 154 175 207 116 191 212 198 88 235 221 221 219 211 139 123 239 60 333 332 311 316 306 276 282 279 286 289 303 293
146 151 150 161 164 154 145 147 141 142 142 139 161 178 174 182 118 60 314 192 209 229 234 265 72 127 196 151 182 167 188 236 191 197 105 233 249 110 137 140 60 318 342 335 327 343 334 320 335 330 320 298 291 299
150 149 139 144 142 144 141 137 133 120 135 223 163 118 63 155 190 72 47 336 178 239 198 245 221 138 230 186 168 222 174 166 237 131 231 205 217 151 123 159 147 313 334 327 338 326 335 333 333 323 321 321 314 308
129 125 119 118 126 127 131 137 146 171 212 173 107 100 173 93 57 151 172 250 239 206 173 177 185 182 118 289 96 165 222 175 264 123 231 238 94 111 145 127 153 324 329 341 346 338 329 320 327 322 314 317 315 309
119 118 119 121 123 127 140 152 176 282 173 208 95 131 148 105 198 196 174 211 200 145 163 140 150 118 149 240 87 228 214 220 81 220 230 62 117 120 122 139 145 87 6 18 6 343 336 330 322 315 312 308 309 305
102 103 108 115 117 124 122 136 167 254 255 140 124 121 202 183 212 209 276 285 105 140 153 177 149 187 138 186 152 209 63 183 240 246 211 127 127 128 147 161 222 56 17 350 344 338 342 332 322 306 304 310 307 305
103 108 109 111 134 140 119 90 316 233 248 147 243 150 182 211 209 207 199 166 133 144 161 153 150 142 184 127 233 136 176 231 211 191 78 92 101 117 56 308 358 307 359 328 346 337 333 326 317 308 308 317 309 306
139 149 87 121 138 128 356 292 240 243 203 157 219 219 173 205 146 206 199 124 137 118 113 100 167 132 186 173 180 194 227 227 69 58 71 117 126 168 312 291 295 317 321 329 331 327 325 321 316 307 317 324 306 303
323 61 126 138 147 179 285 277 249 243 302 145 108 335 284 307 220 149 123 97 154 104 73 170 182 145 124 206 205 159 299 74 67 64 53 44 352 297 274 268 261 283 298 302 300 314 320 308 306 309 325 305 305 309
77 130 139 166 212 225 223 225 306 262 106 85 147 204 193 195 267 115 115 105 52 204 34 34 152 201 196 185 124 93 74 56 23 20 10 24 317 305 281 278 256 283 284 293 306 309 301 305 308 316 294 280 308 294
141 156 190 225 275 290 50 344 321 8 67 60 118 129 105 117 119 103 105 81 42 33 164 178 171 36 29 32 55 74 92 63 270 66 332 304 291 289 279 281 283 265 282 308 294 299 306 316 297 327 292 313 332 319
165 206 228 242 242 271 84 5 284 312 53 36 46 70 89 98 114 83 87 76 336 294 130 49 34 39 37 34 360 3 293 311 303 297 255 190 255 215 247 287 310 316 283 274 284 285 295 283 340 294 279 324 304 293
211 93 240 215 200 188 96 21 289 311 8 58 58 69 61 30 94 96 95 78 49 21 17 11 354 355 359 350 321 337 317 309 305 313 321 314 348 333 310 284 277 312 312 305 300 318 283 349 285 290 319 313 328 331
35 312 282 164 296 147 145 188 309 146 124 104 78 66 86 89 61 54 47 54 55 19 2 344 338 328 319 318 320 311 310 299 285 287 276 289 281 297 334 339 322 323 315 320 338 326 316 307 305 300 340 338 349 27
271 220 256 250 202 82 169 211 113 82 131 118 120 70 46 42 28 27 72 47 50 359 345 345 340 321 309 324 341 329 324 285 287 309 298 276 289 296 282 316 346 331 316 339 342 323 303 288 290 343 9 7 15 21
151 319 330 341 103 147 125 107 146 89 57 48 66 77 46 29 17 52 60 54 358 329 343 356 349 8 23 16 3 350 350 334 324 5 334 321 328 26 30 349 10 4 0 345 343 356 349 13 352 15 51 27 40 38
321 329 222 283 263 155 140 118 93 80 87 57 81 68 46 4 53 59 44 357 319 347 3 1 2 7 2 338 357 1 24 11 37 46 24 29 30 46 36 37 39 37 14 18 9 13 21 17 10 19 22 24 36 58
354 132 354 352 109 4 81 101 98 122 108 73 71 75 17 55 66 64 77 293 297 22 39 351 342 340 352 343 320 360 325 313 303 349 58 52 43 66 57 18 3 54 27 20 16 356 351 350 351 0 22 12 5 357
303 62 78 30 30 133 119 83 67 65 71 75 87 96 192 123 107 110 186 220 295 76 163 213 248 282 278 322 54 171 214 227 18 42 64 61 65 53 33 8 352 323 335 343 334 315 314 313 315 9 353 358 0 11
313 331 40 53 53 7 78 76 48 59 100 191 125 124 59 34 102 150 194 170 258 233 223 231 220 223 11 40 24 27 32 32 99 178 201 76 61 55 33 50 81 117 193 239 290 306 349 23 97 79 29 40 32 12
208 165 101 84 64 35 32 83 137 166 185 199 165 98 103 81 143 159 161 212 314 62 81 90 43 40 71 84 62 41 34 20 25 39 32 32 27 29 17 18 80 104 108 123 204 259 342 6 32 77 88 82 241 247
167 154 117 125 110 82 194 173 144 173 196 112 112 119 116 125 145 152 134 86 78 75 59 46 46 46 35 25 63 65 50 38 27 13 6 16 10 8 360 358 354 23 36 83 113 126 193 220 110 35 30 32 28 40
146 178 114 100 107 118 136 154 148 119 118 121 127 118 114 116 105 73 41 34 48 48 56 56 51 32 37 45 30 25 57 49 34 27 7 2 5 359 357 360 358 358 358 10 27 29 5 38 54 61 47 34 41 31
108 104 114 111 108 97 96 106 110 112 119 123 121 133 149 132 102 98 35 332 75 80 47 27 43 55 22 43 68 98 54 51 40 30 21 15 9 356 351 353 1 7 1 14 35 31 10 16 34 17 20 34 19 23
107 108 111 125 127 117 138 133 118 135 135 140 143 133 171 266 98 106 116 50 56 65 52 37 45 62 66 50 21 63 94 92 102 118 104 55 20 357 3 7 347 1 10 15 23 27 34 23 30 25 31 27 25 23